Regional Weather Roundup
Issued by NWS

Home | Current Version | Previous Version | Text Only | Print | Product List | Glossary Off
Versions: 1 2 3 4 5 6 7 8 9 10 11 12 13 14 15 16 17 18 19 20 21 22 23 24 25 26 27 28 29 30 31 32 33 34 35 36 37 38 39 40 41 42 43 44 45 46 47 48 49 50

000
ASUS43 KBIS 202231
RWRND
NORTH DAKOTA REGIONAL WEATHER ROUNDUP
NATIONAL WEATHER SERVICE EASTERN NORTH DAKOTA/GRAND FORKS ND
500 PM CDT SUN MAY 20 2018

  NOTE: "FAIR" INDICATES FEW OR NO CLOUDS BELOW 12,000 FEET WITH NO
  SIGNIFICANT WEATHER AND/OR OBSTRUCTIONS TO VISIBILITY.

NDZ001>003-009>011-017-202300-
...NORTHWEST NORTH DAKOTA...

CITY           SKY/WX    TMP DP  RH WIND       PRES   REMARKS
WILLISTON      FAIR      73  32  22 SE18      30.09F
MINOT          FAIR      76  28  17 SE13G20   30.12F
MINOT AFB      FAIR      73  29  19 S10G20    30.11F
$$

NDZ018>021-031>035-040>046-202300-
...SOUTHWEST NORTH DAKOTA...

CITY           SKY/WX    TMP DP  RH WIND       PRES   REMARKS
BISMARCK       FAIR      71  35  26 S9        30.16F
DICKINSON      FAIR      68  32  26 SE15G22   30.12F
GARRISON         N/A     70  28  21 S14       30.14F
HETTINGER      FAIR      65  36  34 SE15G23   30.15F
$$

NDZ004>008-012>016-024-026-027-054-202300-
...NORTHEAST NORTH DAKOTA...

CITY           SKY/WX    TMP DP  RH WIND       PRES   REMARKS
GRAND FORKS    FAIR      74  35  24 W5        30.14F
GRAND FORKS AF FAIR      74  36  25 CALM      30.15F
DEVILS LAKE    FAIR      70  34  26 SW6       30.17F
$$

NDZ022-023-025-028>030-036>039-047>053-202300-
...SOUTHEAST NORTH DAKOTA...

CITY           SKY/WX    TMP DP  RH WIND       PRES   REMARKS
JAMESTOWN      FAIR      69  38  32 SE8       30.16F
FARGO          FAIR      71  36  27 SE6       30.16F
WAHPETON       FAIR      72  23  16 E8        30.15F
$$




USA.gov is the U.S. government's official web portal to all federal, state and local government web resources and services.